Back to catalog

THORAD AGENA D DEB

AliveSSO
NORAD 42550·DEBRIS·🇺🇸 United States

Launched Apr 8, 1970 from Vandenberg Space Force Base

Loading…

Next Passes (next 24 hours)

TLE

FreshSource: Space-Track

Epoch: Sep 12, 2026, 02:02 UTC

1 42550U 70025TG  26255.08495550  .00000602  00000-0  33881-3 0  9990
2 42550  99.2741 206.3164 0022170   3.9426  60.0181 14.14419652659023

Track THORAD AGENA D DEB in real time with AllMySat

Download on the App Store